FENGYUN 1C DEB, 31484

Orbit data source: Space-Track

FENGYUN 1C DEB, 31484 is space debris in SSO originally from a launch on Mon, 10 May 1999 UTC launched from the Taiyaun Space Center, China (TSC). Fengyun 1C debris stems from the Chinese weather satellite Fengyun-1C, which was intentionally destroyed by a Chinese anti-satellite missile in 2007. This event dramatically increased the amount of space debris, with thousands of trackable fragments posing hazards to satellites and human spaceflight. The Fengyun 1C debris cloud has become a focal point in discussions about space sustainability and the need for international regulations to prevent the creation of new debris.

Loading next visibility...
Identifier
31484, 1999-025BVY
Orbit
SSO
Country
Flag of CNCN / PRC
Related business
Manufacturer
Unknown
Mission
Spacecraft
Bus & Motor
Unknown
Mass
Unknown
Launch date (UTC)
1999-05-10 (27 years ago)
Launch vehicle
Unknown
Launch site
Taiyaun Space Center, China (TSC)
Object type
Payload
Rocket body
Debris
Shape & HBR
Unknown shape, 0.1 m
Radar Cross Section
Small (<0.1 m²)

Expand to show TLE details & history
Last TLE update: 3 days ago

TLE from 3 days ago
0 FENGYUN 1C DEB
1 31484U 99025BVY 26252.36571346  .00014813  00000-0  28798-2 0  9990
2 31484 101.8093 305.6533 0068940 134.4649 226.2205 14.61779247681795
Epoch: 2026-09-09T08:46Z
TLE epoch observation values (Epoch: 2026-09-09T08:46:37.642Z)
Latitude
-0.00006°
Longitude
-174.42234°
Altitude
724.17 km
Speed
7.475 km/s
True Right ascension
20h 22m 36s
True Declination
0° 00' 00"
Sunlit
Object was in full shadow at epoch
Visualization orbit readout
Latitude
Unknown
Longitude
Unknown
Altitude
Unknown
Speed
Unknown
Apparent Right ascension
Unknown
Apparent Declination
Unknown
Sunlit
N/A
Visualization observer readout
Local Sidereal Time
12:41:11
Azimuth
Unknown
Elevation
Unknown
Doppler factor
Unknown
Orbital elements
Apogee altitude
733.406 km
Perigee altitude
636.023 km
Semi-major axis
7,062.852 km
Eccentricity
0.00689
Inclination
101.8093°
RAAN
305.6533°
Arg. of periapsis
134.4649°
True anomaly
225.65351°
Mean anomaly
226.2205°
Eccentric anomaly
225.93667°
Mean motion
3.65656 °/min
Orbital period
98.45 mins
BSTAR
0.0028798
Loading maneuver chart data...
Computing Atmospheric mass density...
Loading historical data...
Loading historical data...
Loading historical data...
Loading historical data...
Loading historical data...
Loading historical data...
Loading historical data...

Documentation

Showing up to 5 results
|